STARLINK-33659, 63445

Orbit data source: Space-Track

STARLINK-33659, 63445 is a payload satellite owned by SpaceX/Seattle (US) in LEO that was launched on Fri, 04 Apr 2025 UTC via an FALCON 9 launch vehicle from the Air Force Western Test Range (AFWTR). Payload-class satellites include a variety of spacecraft equipped with specific instruments for various scientific and technological missions. These include communications satellites like Starlink; space stations such as the ISS; scientific satellites like the Hubble; Earth observation satellites from companies like Planet Labs, Umbra, and HawkEye 360; GPS; miniature CubeSats for education and research; and military/defense satellites.

Loading next visibility...
Identifier
63445, 2025-069N
Orbit
LEO
Country
Flag of USUS
Related business
Manufacturer
SpaceX/Seattle
Mission
Operational Commercial Communications
Bus & Motor
STARLINK V2MO, Unknown motor
Mass
575 kg wet, ~530 kg dry
Launch date (UTC)
2025-04-04 (8 months ago)
Launch vehicle
FALCON 9
Launch site
Air Force Western Test Range (AFWTR)
Object type
Payload
Rocket body
Debris
Shape & HBR
Box + 2 Pan, 17.7 m
Radar Cross Section
36.964 m², Large (>1 m²)

Expand to show TLE details & history
Last TLE update: 16 hours ago

TLE from 16 hours ago
0 STARLINK-33659
1 63445U 25069N   25348.93140028  .00018389  00000-0  63185-3 0  9998
2 63445  53.1581 176.4703 0001178  73.3549 286.7581 15.30180002 40374
Epoch: 2025-12-14T22:21Z
TLE epoch observation values (Epoch: 2025-12-14T22:21:12.984Z)
Latitude
-0.00001°
Longitude
117.32896°
Altitude
475.942 km
Speed
7.629 km/s
True Right ascension
11h 45m 52s
True Declination
0° 00' 00"
Sunlit
Object was in daylight at epoch
Visualization orbit readout
Latitude
Unknown
Longitude
Unknown
Altitude
Unknown
Speed
Unknown
Apparent Right ascension
Unknown
Apparent Declination
Unknown
Sunlit
N/A
Visualization observer readout
Local Sidereal Time
13:18:51
Azimuth
Unknown
Elevation
Unknown
Doppler factor
Unknown
Orbital elements
Apogee altitude
476.339 km
Perigee altitude
474.724 km
Semi-major axis
6,853.669 km
Eccentricity
0.00012
Inclination
53.1581°
RAAN
176.4703°
Arg. of periapsis
73.3549°
True anomaly
286.74517°
Mean anomaly
286.7581°
Eccentric anomaly
286.75164°
Mean motion
3.82524 °/min
Orbital period
94.11 mins
BSTAR
0.00063185
Loading maneuver chart data...
Computing Atmospheric mass density...
Loading historical data...
Loading historical data...
Loading historical data...
Loading historical data...
Loading historical data...
Loading historical data...
Loading historical data...

Documentation

Showing up to 5 results
|